Location: C�mpuri de-Sus
(45.9500°N, 22.5500°E)
Time: 04:25:41
(UTC+00:00)

Cosmos 2278 - Pass Details

Date: 24 October 2021
Orbit: 838 x 854 km, 71.1° (Epoch: 30 November)

Event Time Altitude Azimuth Distance (km) Brightness Sun altitude
Rises 15:55:36 0° 207° (SSW) 3,388 7.4 -5.4°
Reaches altitude 10° 15:58:02 10° 208° (SSW) 2,460 6.7 -5.9°
Maximum altitude 16:03:41 82° 295° (WNW) 861 3.9 -6.8°
Drops below altitude 10° 16:09:25 10° 25° (NNE) 2,487 5.8 -7.8°
Sets 16:11:53 0° 26° (NNE) 3,428 6.5 -8.2°
